User: anonymous   Login
Location: Unspecified
(0.0000°N, 0.0000°E)
Time: 05:42:35
(UTC+00:00)
Language:

CHUANG XIN 1-02 - Orbit

View from above orbital plane
View from above orbital plane
View from above satellite
View from above satellite

Ground track
Ground track

The orbit is defined by the following mean orbital elements,

1 33434U          26145.55964441 +.00000000 +00000-0 +80266-4 0 00002
2 33434  98.6151 172.0516 0013654 202.4816 157.5770 14.30148089    03
Epoch (UTC): 25 May 2026 13:25:53
Eccentricity: 0.0013654
inclination: 98.6151°
perigee height: 781 km
apogee height: 801 km
right ascension of ascending node: 172.0516°
argument of perigee: 202.4816°
revolutions per day: 14.30148089
mean anomaly at epoch: 157.5770°

The dashed part of the orbit path shows where the satellite is in the earth's shadow,  

DLR